Location: Unspecified
(36.5600°N, 136.6600°E)
Time: 18:26:01
(UTC+09:00)

ISS - Pass Details

Date: 25 June 2024
Orbit: 410 x 424 km, 51.6° (Epoch: 17 July)

Event Time Altitude Azimuth Distance (km) Brightness Sun altitude
Exits shadow 02:59:18 31° 269° (W) 752 -2.9 -16.1°
Maximum altitude 03:00:28 47° 323° (NW) 560 -3.1 -15.9°
Drops below altitude 10° 03:03:43 10° 38° (NE) 1,493 0.4 -15.5°
Sets 03:05:53 0° 45° (NE) 2,363 2.0 -15.2°
